Tracking 29892 objects as of 21-Nov-2024
HD Live streaming from Space Station
objects crossing your sky now

STARLINK-1497

Track STARLINK-1497 now!
10-day predictions
STARLINK-1497 is classified as:


NORAD ID: 45781
Int'l Code: 2020-038BD
Perigee: 533.6 km
Apogee: 539.4 km
Inclination: 53.1 °
Period: 95.2 minutes
Semi major axis: 6907 km
RCS: Unknown
Launch date: June 13, 2020
Source: United States (US)
Launch site: AIR FORCE EASTERN TEST RANGE (AFETR)
Your satellite tracking list
Your tracking list is empty




NASA's NSSDC Master Catalog

Two Line Element Set (TLE):
1 45781U 20038BD  24325.55948023  .00021673  00000-0  12526-2 0  9997
2 45781  53.0510 163.9867 0004185 188.5688 171.5233 15.12242628246235
Source of the keplerian elements: AFSPC